Regional Weather Roundup
Issued by NWS

Home | Current Version | Previous Version | Graphics & Text | Print | Product List | Glossary Off
Versions: 1 2 3 4 5 6 7 8 9 10 11 12 13 14 15 16 17 18 19 20 21 22 23 24 25 26 27 28 29 30 31 32 33 34 35 36 37 38 39 40 41 42 43 44 45 46 47 48 49 50

000
ASUS43 KMKX 300100
RWRWI

WISCONSIN REGIONAL WEATHER ROUNDUP
NATIONAL WEATHER SERVICE MILWAUKEE/SULLIVAN WI
800 PM CDT FRI AUG 29 2014

NOTE: "FAIR" INDICATES FEW OR NO CLOUDS BELOW 12,000 FEET WITH NO
SIGNIFICANT WEATHER AND/OR OBSTRUCTIONS TO VISIBILITY.

WIZ001-002-006>008-014>016-023>028-300200-
NORTHWEST WISCONSIN

CITY           SKY/WX    TMP DP  RH WIND       PRES   REMARKS
SUPERIOR ARPT  CLOUDY    61  61  99 NE3       29.77R
ASHLAND        CLOUDY    67  65  93 CALM      29.77S FOG
HAYWARD        RAIN      67  65  93 CALM      29.78R FOG
SIREN          LGT RAIN  68  67  96 CALM      29.77R
RICE LAKE      CLOUDY    65  64  94 W6        29.81R VSB 3/4
LADYSMITH      CLOUDY    65  64  96 SE3       29.79F
EAU CLAIRE     TSTM      70  68  94 S7        29.78R
MENOMONIE      RAIN      68  67  94 W3        29.79R
NEW RICHMOND   DRIZZLE   67  65  96 CALM      29.77S
OSCEOLA        LGT RAIN  69  69 100 N3        29.79S
$$

WIZ003>005-009-010-017-018-300200-
NORTH CENTRAL WISCONSIN

CITY           SKY/WX    TMP DP  RH WIND       PRES   REMARKS
WOODRUFF       TSTM      65  63  91 S7        29.84R
RHINELANDER    LGT RAIN  66  63  90 SW5       29.86R
EAGLE RIVER    HVY RAIN  64  63  94 SW6G16    29.84R
LAND O LAKES   LGT RAIN  68  65  93 S5        29.84R
PHILLIPS       TSTM      64  63  97 SE7       29.80F
TOMAHAWK       RAIN      64  63  94 CALM      29.84S
MEDFORD        TSTM      65  64  97 S3        29.84F
MERRILL        CLOUDY    71  69  93 NW12G20   29.82R FOG
$$

WIZ029-030-035-036-043>047-300200-
CENTRAL WISCONSIN

CITY           SKY/WX    TMP DP  RH WIND       PRES   REMARKS
WAUSAU         MOCLDY    71  64  78 W22G33    29.84R
MOSINEE        NOT AVBL
MARSHFIELD     TSTM      68  64  87 NW7       29.82R FOG
STEVENS POINT  MOCLDY    70  69  97 S3        29.80S FOG
WAUPACA        MOCLDY    80  71  74 S10       29.80S HX  83
WAUTOMA        NOT AVBL
WISC RAPIDS    MOCLDY    77  71  82 S5        29.80S
CAMP DOUGLAS   NOT AVBL
$$

WIZ011>013-019>022-031-037>040-048>050-300200-
NORTHEAST WISCONSIN

CITY           SKY/WX    TMP DP  RH WIND       PRES   REMARKS
ANTIGO         HVY RAIN  66  65  97 CALM      29.85R
STURGEON BAY   CLOUDY    70  66  88 S15G24    29.84S
GREEN BAY      MOCLDY    75  71  87 S8        29.82R
MANITOWOC      NOT AVBL
APPLETON       CLOUDY    77  68  73 S10       29.83R
CLINTONVILLE   MOCLDY    79  70  73 S9        29.79S HX  81
OSHKOSH        PTCLDY    76  71  85 S7        29.82R
$$

WIZ032>034-041-042-053>061-300200-
SOUTHWEST WISCONSIN

CITY           SKY/WX    TMP DP  RH WIND       PRES   REMARKS
LA CROSSE      CLOUDY    72  68  87 SE7       29.76R
SPARTA         LGT RAIN  73  66  79 NW14G30   29.78S
VIROQUA        FAIR      77  69  77 S7        29.78F
BOSCOBEL       CLOUDY    82  68  62 S7        29.76F HX  85
PRAIRIE DU CHI CLOUDY    81  68  64 SE6       29.75F HX  83
PLATTEVILLE    FAIR      74  69  84 SW14G30   29.83R
$$

WIZ056-057-062-063-064-067-068-300200-
SOUTH CENTRAL WISCONSIN

CITY           SKY/WX    TMP DP  RH WIND       PRES   REMARKS
BARABOO/DELLS  MOCLDY    78  69  72 S7        29.81S HX  81
LONE ROCK      NOT AVBL
WATERTOWN      CLEAR     77  72  85 S3        29.84S
MADISON        CLOUDY    80  70  71 S9        29.82S HX  83
MIDDLETON      FAIR      81  70  68 S9        29.83S HX  84
MONROE         PTCLDY    77  72  83 SE8       29.83F
JANESVILLE     CLEAR     81  70  69 S10       29.84S HX  84
$$

WIZ051-052-058>065-066-070>072-300200-
SOUTHEAST WISCONSIN

CITY           SKY/WX    TMP DP  RH WIND       PRES   REMARKS
MILWAUKEE      PTCLDY    76  69  79 S14       29.87R
WAUKESHA       PTCLDY    75  70  83 SE8       29.87S
MILWAUKEE/TIMM NOT AVBL
RACINE         PTCLDY    75  70  84 S14       29.89S
BURLINGTON     PTCLDY    74  69  86 CALM      29.87R
KENOSHA        PTCLDY    77  72  84 S20       29.88R
FOND DU LAC    PTCLDY    77  70  79 S8        29.83S
SHEBOYGAN      MOCLDY    73  70  90 S15       29.86S
WEST BEND      PTCLDY    75  68  78 SE5       29.86R
JUNEAU         CLEAR     77  70  78 S9        29.85S
$$

LSZ147-162-300200-
LAKE SUPERIOR

STATION/POSITION TIME  TEMP    WIND        PRES    WAVE
                       AIR SEA DIR/SP/G            HT/PER
                 (UTC) (F)     (DEG/KT/KT) (MB)    (FT/S)
W MID LAKE BUOY  2350   59 56   40/  2/  2 1007.5R   1
DEVILS ISLAND    0000   62      CALM  /  1 1007.6F
PORT WING        0040   63      20/  6/  8 1008.1S
SAXON HARBOR     0000   65     290/  3/  4 1007.8S
$$

LMZ867-665-643>646-300200-
LAKE MICHIGAN

STATION/POSITION TIME  TEMP    WIND        PRES    WAVE
                       AIR SEA DIR/SP/G            HT/PER
                 (UTC) (F)     (DEG/KT/KT) (MB)    (FT/S)
N MID LAKE BUOY  2350   68 65  190/ 14/ 16 1010.2F   4/ 6
NORTHPORT PIER   0000   69     160/ 10/ 16 1010.2F
SISTER BAY       0041   70     180/ 22/ 28   N/A
KEWAUNEE LAKESHO 0000   67     180/ 15/ 18 1010.0F
SHEBOYGAN LAKESH 0000   68 69  170/ 11/ 11 1011.2F
ATWATER BUOY     0000   72     170/ 16/ 19 1012.3R
MILWAUKEE LAKESH 0000   73     150/ 18/ 19   N/A
S MID LAKE BUOY  2350   72 69  160/ 16/ 19 1011.9F   2/ 4
KENOSHA   LAKESH 0000   73     180/ 17/ 20 1010.8F
$$

TC  - TEMPERATURE IN CELSIUS
VSB - VISIBILITY IN STATUTE MILES
WCI - WIND CHILL INDEX
HX  - HEAT INDEX



USA.gov is the U.S. government's official web portal to all federal, state and local government web resources and services.